San Antonio Stinson, TX

4:33 PM CDT on April 27, 2017 (GMT -0500)
Stinson Municipal

Weather History for KSSF - January, 2011

Change the Weather History Date:

Saturday, January 22, 2011

  Actual Average Record
Temperature  
Mean Temperature 47 °F -  
Max Temperature 64 °F 62 °F 79 °F (2009)
Min Temperature 30 °F 42 °F 30 °F (2001)
Degree Days  
Heating Degree Days 18    
Moisture  
Dew Point 28 °F    
Average Humidity 54    
Maximum Humidity 85    
Minimum Humidity 21    
Precipitation  
Precipitation 0.00 in - - ()
Sea Level Pressure  
Sea Level Pressure 30.05 in    
Wind  
Wind Speed 2 mph (SSE)    
Max Wind Speed 13 mph    
Max Gust Speed 18 mph    
Visibility 10 miles    
Events      
Averages and records for this station are not official NWS values.
T = Trace of Precipitation, MM = Missing Value Source: NWS Daily Summary

Daily Weather History Graph

Daily Weather History Graph

Search for Another Location

Airport or City:

Trip Planner

Search our weather history database for the weather conditions in past years. The results will help you decide how hot, cold, wet, or windy it might be!

Date:

Astronomy

Jan. 22, 2011 Rise Set
Actual Time 7:27 AM CST 6:03 PM CST
Civil Twilight 7:02 AM CST 6:28 PM CST
Nautical Twilight 6:33 AM CST 6:57 PM CST
Astronomical Twilight 6:04 AM CST 7:26 PM CST
Moon 9:31 PM CST (1/22) 9:13 AM CST (1/22)
Length of Visible Light 11h 26m
Length of Day
10h 35m
Waning Gibbous, 89% of the Moon is Illuminated
Jan 22
Waning Gibbous
Jan 26
Last Quarter
Feb 2
New
Feb 11
First Quarter
Feb 18
Full

Hourly Weather History & Observations

Time (CST) Temp. Windchill Dew Point Humidity Pressure Visibility Wind Dir Wind Speed Gust Speed Precip Events Conditions
12:53 AM 36.0 °F - 28.0 °F 73% 30.14 in 10.0 mi Calm Calm - N/A   Clear
1:53 AM 33.1 °F - 27.0 °F 78% 30.13 in 10.0 mi Calm Calm - N/A   Clear
2:53 AM 33.1 °F - 26.1 °F 75% 30.14 in 10.0 mi Calm Calm - N/A   Clear
3:53 AM 32.0 °F - 26.1 °F 79% 30.14 in 10.0 mi Calm Calm - N/A   Clear
4:53 AM 30.0 °F - 25.0 °F 82% 30.14 in 10.0 mi Calm Calm - N/A   Clear
5:53 AM 30.9 °F - 26.1 °F 82% 30.13 in 10.0 mi Calm Calm - N/A   Clear
6:53 AM 30.0 °F - 25.0 °F 82% 30.14 in 10.0 mi Calm Calm - N/A   Clear
7:53 AM 30.0 °F - 26.1 °F 85% 30.15 in 10.0 mi Calm Calm - N/A   Clear
8:53 AM 39.0 °F - 28.9 °F 67% 30.15 in 10.0 mi Calm Calm - N/A   Clear
9:53 AM 46.0 °F - 28.9 °F 51% 30.15 in 10.0 mi Calm Calm - N/A   Clear
10:53 AM 54.0 °F - 30.0 °F 40% 30.14 in 10.0 mi Calm Calm - N/A   Clear
11:53 AM 59.0 °F - 25.0 °F 27% 30.11 in 10.0 mi ESE 5.8 mph - N/A   Clear
12:53 PM 62.1 °F - 21.0 °F 21% 30.06 in 10.0 mi ESE 5.8 mph - N/A   Clear
1:53 PM 64.0 °F - 24.1 °F 22% 30.01 in 10.0 mi SSE 12.7 mph 18.4 mph N/A   Clear
2:53 PM 64.9 °F - 24.1 °F 21% 29.98 in 10.0 mi South 11.5 mph - N/A   Clear
4:53 PM 63.0 °F - 24.1 °F 23% 29.94 in 10.0 mi South 8.1 mph - N/A   Clear
5:53 PM 59.0 °F - 27.0 °F 29% 29.93 in 10.0 mi SSE 6.9 mph - N/A   Clear
6:53 PM 52.0 °F - 30.0 °F 43% 29.93 in 10.0 mi SSE 4.6 mph - N/A   Clear
7:53 PM 52.0 °F - 30.9 °F 45% 29.94 in 10.0 mi SSE 10.4 mph - N/A   Clear
8:53 PM 50.0 °F - 33.1 °F 52% 29.94 in 10.0 mi SSE 5.8 mph - N/A   Clear
9:53 PM 48.0 °F - 34.0 °F 58% 29.94 in 10.0 mi SSE 6.9 mph - N/A   Clear
10:53 PM 45.0 °F 41.8 °F 30.9 °F 58% 29.95 in 10.0 mi SSE 5.8 mph - N/A   Clear
11:53 PM 45.0 °F - 32.0 °F 60% 29.94 in 10.0 mi Calm Calm - N/A   Clear